• In Belarus
  • List of Countries
  • For 7 days
  • Water Temperature
  • Satellite Maps
  • Weather Map
  • Weather Widgets
  • user-avatar
    Login

    Hourly Weather Skvira

    Today, 23 October, Monday

    Time Temperature Precipitation Wind Pressure Humidity
    00:00 +1°C° 0 mm 3 mps 746 mmHg 74%
    01:00 +1°C° 0 mm 3 mps 745 mmHg 75%
    02:00 +1°C° 0 mm 2 mps 745 mmHg 77%
    03:00 +1°C° 0 mm 2 mps 745 mmHg 78%
    04:00 0°C° 0 mm 3 mps 745 mmHg 78%
    05:00 0°C° 0 mm 3 mps 745 mmHg 79%
    06:00 0°C° 0 mm 3 mps 744 mmHg 77%
    07:00 0°C° 0 mm 4 mps 744 mmHg 75%
    08:00 +1°C° 0 mm 5 mps 744 mmHg 72%
    09:00 +2°C° 0 mm 5 mps 744 mmHg 68%
    10:00 +3°C° 0 mm 5 mps 744 mmHg 63%
    11:00 +5°C° 0 mm 5 mps 744 mmHg 59%
    12:00 +6°C° 0 mm 5 mps 744 mmHg 57%
    13:00 +6°C° 0 mm 5 mps 743 mmHg 55%
    14:00 +7°C° 0 mm 5 mps 743 mmHg 53%
    15:00 +6°C° 0 mm 5 mps 743 mmHg 54%
    16:00 +6°C° 0 mm 4 mps 743 mmHg 55%
    17:00 +5°C° 0 mm 4 mps 743 mmHg 55%
    18:00 +5°C° 0 mm 4 mps 743 mmHg 57%
    19:00 +5°C° 0 mm 4 mps 743 mmHg 58%
    20:00 +5°C° 0 mm 5 mps 743 mmHg 60%
    21:00 +5°C° 0.1 mm 5 mps 744 mmHg 61%
    22:00 +3°C° 0.1 mm 5 mps 744 mmHg 62%
    23:00 +3°C° 0.1 mm 5 mps 744 mmHg 64%

    Tomorrow, 24 October, Tuesday

    Time Temperature Precipitation Wind Pressure Humidity
    00:00 +3°C° 0 mm 5 mps 744 mmHg 64%
    01:00 +3°C° 0 mm 5 mps 744 mmHg 64%
    02:00 +3°C° 0 mm 5 mps 745 mmHg 64%
    03:00 +3°C° 0 mm 5 mps 745 mmHg 63%
    04:00 +2°C° 0 mm 5 mps 745 mmHg 62%
    05:00 +2°C° 0 mm 5 mps 745 mmHg 61%
    06:00 +2°C° 0 mm 5 mps 745 mmHg 60%
    07:00 +2°C° 0 mm 5 mps 746 mmHg 59%
    08:00 +2°C° 0 mm 5 mps 746 mmHg 58%
    09:00 +3°C° 0 mm 5 mps 747 mmHg 57%
    10:00 +3°C° 0 mm 5 mps 747 mmHg 55%
    11:00 +5°C° 0 mm 5 mps 748 mmHg 53%
    12:00 +4°C° 0 mm 6 mps 748 mmHg 52%
    13:00 +5°C° 0 mm 6 mps 748 mmHg 52%
    14:00 +5°C° 0 mm 6 mps 748 mmHg 51%
    15:00 +5°C° 0 mm 5 mps 748 mmHg 53%
    16:00 +5°C° 0 mm 5 mps 749 mmHg 54%
    17:00 +4°C° 0 mm 4 mps 749 mmHg 56%
    18:00 +4°C° 0 mm 4 mps 749 mmHg 57%
    19:00 +3°C° 0 mm 4 mps 750 mmHg 57%
    20:00 +3°C° 0 mm 4 mps 750 mmHg 58%
    21:00 +1°C° 0 mm 4 mps 751 mmHg 60%
    22:00 +1°C° 0 mm 4 mps 751 mmHg 61%
    23:00 0°C° 0 mm 4 mps 751 mmHg 63%

    Day after tomorrow, 25 October, Wednesday

    Time Temperature Precipitation Wind Pressure Humidity
    00:00 +1°C° 0 mm 3 mps 751 mmHg 64%
    01:00 0°C° 0 mm 3 mps 751 mmHg 66%
    02:00 0°C° 0 mm 3 mps 751 mmHg 68%
    03:00 -1°C° 0 mm 3 mps 751 mmHg 69%
    04:00 -1°C° 0 mm 3 mps 752 mmHg 71%
    05:00 -1°C° 0 mm 3 mps 752 mmHg 72%
    06:00 -1°C° 0 mm 3 mps 752 mmHg 71%
    07:00 -1°C° 0 mm 3 mps 752 mmHg 69%
    08:00 -1°C° 0 mm 4 mps 753 mmHg 68%
    09:00 0°C° 0 mm 4 mps 753 mmHg 62%
    10:00 +3°C° 0 mm 4 mps 753 mmHg 56%
    11:00 +4°C° 0 mm 3 mps 753 mmHg 50%
    12:00 +5°C° 0 mm 3 mps 753 mmHg 48%
    13:00 +7°C° 0 mm 3 mps 753 mmHg 46%
    14:00 +7°C° 0 mm 3 mps 752 mmHg 44%
    15:00 +5°C° 0 mm 3 mps 752 mmHg 48%
    16:00 +5°C° 0 mm 2 mps 752 mmHg 53%
    17:00 +4°C° 0 mm 2 mps 752 mmHg 57%
    18:00 +4°C° 0 mm 2 mps 752 mmHg 59%
    19:00 +3°C° 0 mm 2 mps 752 mmHg 62%
    20:00 +3°C° 0 mm 2 mps 752 mmHg 64%
    21:00 +2°C° 0 mm 2 mps 752 mmHg 65%
    22:00 +2°C° 0 mm 2 mps 752 mmHg 66%
    23:00 +2°C° 0 mm 2 mps 752 mmHg 66%

    26 October, Thursday

    Time Temperature Precipitation Wind Pressure Humidity
    00:00 +2°C° 0 mm 3 mps 751 mmHg 65%
    01:00 +2°C° 0 mm 3 mps 751 mmHg 64%
    02:00 +2°C° 0 mm 3 mps 751 mmHg 62%
    03:00 +3°C° 0 mm 4 mps 750 mmHg 62%
    04:00 +3°C° 0 mm 4 mps 750 mmHg 62%
    05:00 +3°C° 0 mm 4 mps 749 mmHg 62%
    06:00 +2°C° 0.2 mm 5 mps 749 mmHg 64%
    07:00 +3°C° 0.2 mm 5 mps 749 mmHg 65%
    08:00 +3°C° 0.2 mm 6 mps 748 mmHg 66%
    09:00 +5°C° 0.3 mm 5 mps 748 mmHg 69%
    10:00 +5°C° 0.3 mm 5 mps 748 mmHg 72%
    11:00 +6°C° 0.3 mm 5 mps 747 mmHg 75%
    12:00 +7°C° 0 mm 5 mps 747 mmHg 75%
    13:00 +8°C° 0 mm 5 mps 747 mmHg 76%
    14:00 +9°C° 0 mm 5 mps 747 mmHg 77%
    15:00 +10°C° 0 mm 4 mps 746 mmHg 80%
    16:00 +10°C° 0 mm 4 mps 746 mmHg 83%
    17:00 +10°C° 0 mm 3 mps 746 mmHg 85%
    18:00 +9°C° 0 mm 3 mps 746 mmHg 87%
    19:00 +9°C° 0 mm 3 mps 746 mmHg 88%
    20:00 +9°C° 0 mm 3 mps 746 mmHg 89%
    21:00 +9°C° 0.1 mm 3 mps 745 mmHg 91%
    22:00 +8°C° 0.1 mm 4 mps 745 mmHg 92%
    23:00 +8°C° 0.1 mm 4 mps 745 mmHg 93%

    27 October, Friday

    Time Temperature Precipitation Wind Pressure Humidity
    00:00 +8°C° 0.1 mm 4 mps 745 mmHg 93%
    01:00 +8°C° 0.1 mm 4 mps 744 mmHg 94%
    02:00 +8°C° 0.1 mm 4 mps 744 mmHg 94%
    03:00 +7°C° 0 mm 4 mps 744 mmHg 94%
    04:00 +7°C° 0 mm 4 mps 743 mmHg 93%
    05:00 +7°C° 0 mm 4 mps 743 mmHg 93%
    06:00 +7°C° 0 mm 4 mps 742 mmHg 93%
    07:00 +7°C° 0 mm 4 mps 742 mmHg 93%
    08:00 +7°C° 0 mm 4 mps 742 mmHg 92%
    09:00 +8°C° 0.1 mm 4 mps 741 mmHg 88%
    10:00 +10°C° 0.1 mm 4 mps 741 mmHg 84%
    11:00 +11°C° 0.1 mm 4 mps 741 mmHg 80%
    12:00 +11°C° 0.1 mm 4 mps 740 mmHg 77%
    13:00 +12°C° 0.1 mm 4 mps 739 mmHg 75%
    14:00 +12°C° 0.1 mm 4 mps 739 mmHg 72%
    15:00 +11°C° 0.1 mm 3 mps 738 mmHg 76%
    16:00 +11°C° 0.1 mm 3 mps 738 mmHg 79%
    17:00 +10°C° 0.1 mm 2 mps 738 mmHg 83%
    18:00 +10°C° 0.3 mm 2 mps 737 mmHg 86%
    19:00 +9°C° 0.3 mm 2 mps 737 mmHg 89%
    20:00 +9°C° 0.3 mm 2 mps 737 mmHg 92%
    21:00 +9°C° 0.5 mm 2 mps 736 mmHg 92%
    22:00 +9°C° 0.5 mm 2 mps 736 mmHg 92%
    23:00 +8°C° 0.5 mm 2 mps 735 mmHg 92%

    28 October, Saturday

    Time Temperature Precipitation Wind Pressure Humidity
    00:00 +8°C° 0.6 mm 2 mps 735 mmHg 92%
    01:00 +8°C° 0.6 mm 2 mps 735 mmHg 91%
    02:00 +8°C° 0.6 mm 2 mps 735 mmHg 91%
    03:00 +7°C° 0.3 mm 3 mps 735 mmHg 91%
    04:00 +7°C° 0.3 mm 3 mps 734 mmHg 91%
    05:00 +7°C° 0.3 mm 3 mps 734 mmHg 91%
    06:00 +7°C° 0 mm 3 mps 734 mmHg 91%
    07:00 +5°C° 0 mm 3 mps 734 mmHg 91%
    08:00 +5°C° 0 mm 4 mps 734 mmHg 90%
    09:00 +6°C° 0 mm 4 mps 734 mmHg 85%
    10:00 +7°C° 0 mm 4 mps 735 mmHg 81%
    11:00 +8°C° 0 mm 4 mps 735 mmHg 76%
    12:00 +8°C° 0.1 mm 4 mps 734 mmHg 73%
    13:00 +8°C° 0.1 mm 4 mps 734 mmHg 71%
    14:00 +10°C° 0.1 mm 4 mps 734 mmHg 69%
    15:00 +8°C° 0.1 mm 4 mps 734 mmHg 72%
    16:00 +7°C° 0.1 mm 5 mps 734 mmHg 75%
    17:00 +7°C° 0.1 mm 5 mps 734 mmHg 78%
    18:00 +6°C° 0 mm 5 mps 735 mmHg 79%
    19:00 +6°C° 0 mm 5 mps 735 mmHg 80%
    20:00 +5°C° 0 mm 4 mps 735 mmHg 81%
    21:00 +5°C° 0 mm 5 mps 735 mmHg 82%
    22:00 +3°C° 0 mm 5 mps 736 mmHg 83%
    23:00 +3°C° 0 mm 5 mps 736 mmHg 84%

    29 October, Sunday

    Time Temperature Precipitation Wind Pressure Humidity
    00:00 +3°C° 0 mm 5 mps 736 mmHg 84%
    01:00 +2°C° 0 mm 5 mps 736 mmHg 85%
    02:00 +3°C° 0 mm 4 mps 736 mmHg 86%
    03:00 +3°C° 0 mm 4 mps 736 mmHg 88%
    04:00 +1°C° 0 mm 4 mps 736 mmHg 89%
    05:00 +2°C° 0 mm 3 mps 736 mmHg 90%
    06:00 +2°C° 0 mm 3 mps 736 mmHg 89%
    07:00 +2°C° 0 mm 3 mps 737 mmHg 88%
    08:00 +3°C° 0 mm 2 mps 737 mmHg 87%
    09:00 +4°C° 0.1 mm 2 mps 737 mmHg 82%
    10:00 +5°C° 0.1 mm 2 mps 737 mmHg 77%
    11:00 +7°C° 0.1 mm 2 mps 737 mmHg 72%
    12:00 +7°C° 0.1 mm 2 mps 737 mmHg 71%
    13:00 +7°C° 0.1 mm 2 mps 737 mmHg 69%
    14:00 +8°C° 0.1 mm 2 mps 737 mmHg 68%
    15:00 +7°C° 0 mm 2 mps 737 mmHg 71%
    16:00 +6°C° 0 mm 2 mps 737 mmHg 73%
    17:00 +6°C° 0 mm 2 mps 737 mmHg 76%
    18:00 +5°C° 0 mm 2 mps 737 mmHg 78%
    19:00 +5°C° 0 mm 2 mps 737 mmHg 80%
    20:00 +4°C° 0 mm 2 mps 738 mmHg 82%
    21:00 +4°C° 0 mm 2 mps 738 mmHg 83%
    22:00 +3°C° 0 mm 2 mps 737 mmHg 84%
    23:00 +3°C° 0 mm 2 mps 737 mmHg 86%
    Show more